This is the latest recevied weather packets stored in our database for station/object OK1FET-15. If no packets are shown the sender has not sent any weather packets the latest 1 day(s).
| Time | Temp. | Humidity | Pressure | Rain* | Wind** | Luminosity | Snow |
|---|---|---|---|---|---|---|---|
| 1778068068 | 28.33° C | 65% | 1006.1 hPa | - | - | - | - |
| 1778067416 | 28.89° C | 70% | 1006.2 hPa | - | - | - | - |
| 1778066455 | 28.89° C | 78% | 1006.4 hPa | - | - | - | - |
| 1778066129 | 27.78° C | 68% | 1006.6 hPa | - | - | - | - |
| 1778065477 | 26.11° C | 55% | 1006.7 hPa | - | - | - | - |
| 1778062544 | 26.67° C | 93% | 1007.1 hPa | - | - | - | - |
| 1778062218 | 26.11° C | 77% | 1007.1 hPa | - | - | - | - |
| 1778061892 | 26.11° C | 89% | 1007.2 hPa | - | - | - | - |
| 1778060915 | 25.56° C | 98% | 1007.3 hPa | - | - | - | - |
| 1778060589 | 25.56° C | 94% | 1007.3 hPa | - | - | - | - |
| 1778060263 | 25° C | 76% | 1007.3 hPa | - | - | - | - |
| 1778059612 | 24.44° C | 100% | 1007.3 hPa | - | - | - | - |
| 1778059286 | 24.44° C | 100% | 1007.3 hPa | - | - | - | - |
| 1778058635 | 23.33° C | 100% | 1007.3 hPa | - | - | - | - |
| 1778058309 | 23.89° C | 98% | 1007.3 hPa | - | - | - | - |
| 1778057983 | 23.89° C | 100% | 1007.2 hPa | - | - | - | - |
| 1778057658 | 22.78° C | 100% | 1007.3 hPa | - | - | - | - |
| 1778057332 | 21.67° C | 100% | 1007.3 hPa | - | - | - | - |
| 1778049083 | 14.44° C | 100% | 1007.6 hPa | - | - | - | - |
| 1778048758 | 13.89° C | 100% | 1007.6 hPa | - | - | - | - |
| 1778048451 | 13.33° C | 100% | 1007.6 hPa | - | - | - | - |
| 1778047222 | 12.78° C | 100% | 1007.4 hPa | - | - | - | - |
| 1778046915 | 12.22° C | 100% | 1007.3 hPa | - | - | - | - |
| 1778046608 | 12.22° C | 100% | 1007.3 hPa | - | - | - | - |
| 1778045686 | 11.67° C | 100% | 1007.2 hPa | - | - | - | - |
* Rain since midnight (hover to see other rain measurements)
** Current wind speed in m/s (hover to see current wind gust speed)